• în România
  • Lista ţărilor
  • Pe 7 zile
  • Temperatura apei
  • Hartă satelitară
  • Meteo pe hartă
  • Widget-uri
  • user-avatar
    Intrare

    Meteo pe oră la Pisarevo

    Astăzi, 15 Noiembrie, Joi

    Timp Temperatura Precipitaţii Vânt Presiune Umiditate
    00:00 -5°C° 0 mm 5 m/s 756 mmHg 48%
    01:00 -4°C° 0 mm 4 m/s 756 mmHg 50%
    02:00 -4°C° 0 mm 4 m/s 756 mmHg 52%
    03:00 -5°C° 0 mm 4 m/s 757 mmHg 54%
    04:00 -5°C° 0 mm 4 m/s 757 mmHg 55%
    05:00 -5°C° 0 mm 3 m/s 757 mmHg 56%
    06:00 -5°C° 0 mm 3 m/s 757 mmHg 57%
    07:00 -5°C° 0 mm 3 m/s 758 mmHg 55%
    08:00 -5°C° 0 mm 3 m/s 758 mmHg 54%
    09:00 -5°C° 0 mm 3 m/s 759 mmHg 52%
    10:00 -5°C° 0 mm 3 m/s 759 mmHg 48%
    11:00 -4°C° 0 mm 3 m/s 759 mmHg 43%
    12:00 -2°C° 0 mm 3 m/s 760 mmHg 39%
    13:00 -2°C° 0 mm 3 m/s 760 mmHg 38%
    14:00 -2°C° 0 mm 3 m/s 760 mmHg 37%
    15:00 -1°C° 0 mm 3 m/s 760 mmHg 36%
    16:00 -2°C° 0 mm 2 m/s 761 mmHg 38%
    17:00 -3°C° 0 mm 2 m/s 761 mmHg 39%
    18:00 -3°C° 0 mm 2 m/s 761 mmHg 40%
    19:00 -3°C° 0 mm 2 m/s 762 mmHg 40%
    20:00 -4°C° 0 mm 2 m/s 762 mmHg 40%
    21:00 -4°C° 0 mm 2 m/s 762 mmHg 40%
    22:00 -4°C° 0 mm 2 m/s 762 mmHg 39%
    23:00 -4°C° 0 mm 2 m/s 763 mmHg 38%

    Mâine, 16 Noiembrie, Vineri

    Timp Temperatura Precipitaţii Vânt Presiune Umiditate
    00:00 -4°C° 0 mm 2 m/s 763 mmHg 38%
    01:00 -4°C° 0 mm 2 m/s 763 mmHg 37%
    02:00 -4°C° 0 mm 2 m/s 763 mmHg 35%
    03:00 -2°C° 0 mm 1 m/s 764 mmHg 34%
    04:00 -5°C° 0 mm 2 m/s 764 mmHg 33%
    05:00 -5°C° 0 mm 2 m/s 764 mmHg 32%
    06:00 -5°C° 0 mm 2 m/s 764 mmHg 32%
    07:00 -5°C° 0 mm 2 m/s 764 mmHg 31%
    08:00 -5°C° 0 mm 2 m/s 765 mmHg 30%
    09:00 -5°C° 0 mm 2 m/s 765 mmHg 29%
    10:00 -4°C° 0 mm 2 m/s 765 mmHg 26%
    11:00 -3°C° 0 mm 2 m/s 765 mmHg 24%
    12:00 -2°C° 0 mm 2 m/s 765 mmHg 21%
    13:00 0°C° 0 mm 1 m/s 765 mmHg 22%
    14:00 0°C° 0 mm 1 m/s 765 mmHg 22%
    15:00 +1°C° 0 mm 1 m/s 765 mmHg 22%
    16:00 0°C° 0 mm 1 m/s 765 mmHg 23%
    17:00 -1°C° 0 mm 1 m/s 765 mmHg 24%
    18:00 -1°C° 0 mm 1 m/s 765 mmHg 24%
    19:00 -2°C° 0 mm 1 m/s 765 mmHg 24%
    20:00 -2°C° 0 mm 1 m/s 765 mmHg 24%
    21:00 -2°C° 0 mm 1 m/s 765 mmHg 24%
    22:00 -2°C° 0 mm 1 m/s 765 mmHg 24%
    23:00 -2°C° 0 mm 1 m/s 765 mmHg 23%

    Poimâine, 17 Noiembrie, Sâmbătă

    Timp Temperatura Precipitaţii Vânt Presiune Umiditate
    00:00 -2°C° 0 mm 1 m/s 764 mmHg 23%
    01:00 -3°C° 0 mm 0 m/s 764 mmHg 22%
    02:00 -3°C° 0 mm 0 m/s 764 mmHg 22%
    03:00 -3°C° 0 mm 0 m/s 764 mmHg 21%
    04:00 -4°C° 0 mm 0 m/s 764 mmHg 21%
    05:00 -3°C° 0 mm 1 m/s 763 mmHg 21%
    06:00 -3°C° 0 mm 1 m/s 763 mmHg 21%
    07:00 -3°C° 0 mm 1 m/s 763 mmHg 21%
    08:00 -2°C° 0 mm 1 m/s 762 mmHg 20%
    09:00 -2°C° 0 mm 1 m/s 762 mmHg 20%
    10:00 -1°C° 0 mm 1 m/s 762 mmHg 19%
    11:00 -2°C° 0 mm 2 m/s 761 mmHg 17%
    12:00 -1°C° 0 mm 2 m/s 760 mmHg 16%
    13:00 -1°C° 0 mm 2 m/s 760 mmHg 17%
    14:00 -1°C° 0 mm 2 m/s 759 mmHg 18%
    15:00 -1°C° 0 mm 2 m/s 758 mmHg 19%
    16:00 -2°C° 0 mm 3 m/s 758 mmHg 20%
    17:00 -2°C° 0 mm 3 m/s 757 mmHg 21%
    18:00 -4°C° 0 mm 3 m/s 756 mmHg 22%
    19:00 -4°C° 0 mm 3 m/s 756 mmHg 22%
    20:00 -4°C° 0 mm 3 m/s 755 mmHg 23%
    21:00 -4°C° 0 mm 3 m/s 754 mmHg 23%
    22:00 -4°C° 0 mm 3 m/s 753 mmHg 24%
    23:00 -4°C° 0 mm 3 m/s 753 mmHg 25%

    18 Noiembrie, Duminică

    Timp Temperatura Precipitaţii Vânt Presiune Umiditate
    00:00 -4°C° 0 mm 4 m/s 752 mmHg 26%
    01:00 -4°C° 0.1 mm 3 m/s 751 mmHg 31%
    02:00 -4°C° 0.1 mm 3 m/s 751 mmHg 36%
    03:00 -4°C° 0.1 mm 3 m/s 750 mmHg 40%
    04:00 -4°C° 0.1 mm 3 m/s 749 mmHg 45%
    05:00 -4°C° 0.1 mm 3 m/s 749 mmHg 50%
    06:00 -5°C° 0.1 mm 3 m/s 748 mmHg 55%
    07:00 -5°C° 0.2 mm 3 m/s 748 mmHg 59%
    08:00 -5°C° 0.2 mm 3 m/s 748 mmHg 63%
    09:00 -4°C° 0.2 mm 3 m/s 747 mmHg 67%
    10:00 -4°C° 0.1 mm 3 m/s 747 mmHg 67%
    11:00 -4°C° 0.1 mm 3 m/s 747 mmHg 67%
    12:00 -2°C° 0.1 mm 3 m/s 747 mmHg 68%
    13:00 -2°C° 0.1 mm 3 m/s 747 mmHg 66%
    14:00 -2°C° 0.1 mm 2 m/s 747 mmHg 64%
    15:00 -2°C° 0.1 mm 2 m/s 747 mmHg 63%
    16:00 -2°C° 0.1 mm 2 m/s 747 mmHg 60%
    17:00 -3°C° 0.1 mm 2 m/s 747 mmHg 58%
    18:00 -3°C° 0.1 mm 2 m/s 748 mmHg 55%
    19:00 -4°C° 0 mm 2 m/s 748 mmHg 53%
    20:00 -4°C° 0 mm 2 m/s 748 mmHg 51%
    21:00 -4°C° 0 mm 2 m/s 748 mmHg 48%
    22:00 -4°C° 0 mm 2 m/s 749 mmHg 47%
    23:00 -5°C° 0 mm 2 m/s 749 mmHg 46%

    19 Noiembrie, Luni

    Timp Temperatura Precipitaţii Vânt Presiune Umiditate
    00:00 -5°C° 0 mm 2 m/s 749 mmHg 45%
    01:00 -5°C° 0 mm 2 m/s 750 mmHg 46%
    02:00 -5°C° 0 mm 2 m/s 750 mmHg 46%
    03:00 -6°C° 0 mm 2 m/s 751 mmHg 47%
    04:00 -6°C° 0 mm 2 m/s 751 mmHg 50%
    05:00 -6°C° 0 mm 2 m/s 751 mmHg 54%
    06:00 -6°C° 0 mm 2 m/s 752 mmHg 57%
    07:00 -5°C° 0 mm 2 m/s 752 mmHg 61%
    08:00 -5°C° 0 mm 2 m/s 753 mmHg 66%
    09:00 -5°C° 0 mm 2 m/s 753 mmHg 70%
    10:00 -4°C° 0 mm 2 m/s 753 mmHg 72%
    11:00 -4°C° 0 mm 2 m/s 754 mmHg 74%
    12:00 -3°C° 0 mm 2 m/s 754 mmHg 76%
    13:00 -3°C° 0.1 mm 2 m/s 754 mmHg 77%
    14:00 -4°C° 0.1 mm 3 m/s 754 mmHg 79%
    15:00 -4°C° 0.1 mm 3 m/s 755 mmHg 81%
    16:00 -4°C° 0 mm 3 m/s 755 mmHg 81%
    17:00 -4°C° 0 mm 3 m/s 755 mmHg 82%
    18:00 -4°C° 0 mm 3 m/s 755 mmHg 83%
    19:00 -4°C° 0 mm 2 m/s 755 mmHg 83%
    20:00 -4°C° 0 mm 2 m/s 756 mmHg 84%
    21:00 -4°C° 0 mm 2 m/s 756 mmHg 84%
    22:00 -4°C° 0 mm 2 m/s 756 mmHg 84%
    23:00 -3°C° 0 mm 2 m/s 756 mmHg 85%

    20 Noiembrie, Marţi

    Timp Temperatura Precipitaţii Vânt Presiune Umiditate
    00:00 -3°C° 0 mm 2 m/s 757 mmHg 85%
    01:00 -3°C° 0 mm 2 m/s 757 mmHg 87%
    02:00 -3°C° 0 mm 2 m/s 757 mmHg 88%
    03:00 -3°C° 0 mm 2 m/s 757 mmHg 90%
    04:00 -3°C° 0 mm 2 m/s 757 mmHg 91%
    05:00 -3°C° 0 mm 2 m/s 757 mmHg 92%
    06:00 -3°C° 0 mm 2 m/s 756 mmHg 94%
    07:00 -3°C° 0 mm 2 m/s 757 mmHg 93%
    08:00 -3°C° 0 mm 2 m/s 757 mmHg 92%
    09:00 -3°C° 0 mm 2 m/s 757 mmHg 92%
    10:00 -2°C° 0 mm 2 m/s 757 mmHg 89%
    11:00 -2°C° 0 mm 2 m/s 757 mmHg 87%
    12:00 -1°C° 0 mm 2 m/s 757 mmHg 84%
    13:00 -1°C° 0 mm 2 m/s 756 mmHg 83%
    14:00 -1°C° 0 mm 2 m/s 756 mmHg 82%
    15:00 -1°C° 0 mm 2 m/s 756 mmHg 81%
    16:00 -2°C° 0 mm 2 m/s 756 mmHg 81%
    17:00 -2°C° 0 mm 2 m/s 755 mmHg 81%
    18:00 -3°C° 0 mm 2 m/s 755 mmHg 81%
    19:00 -3°C° 0 mm 2 m/s 755 mmHg 80%
    20:00 -3°C° 0 mm 2 m/s 755 mmHg 80%
    21:00 -3°C° 0 mm 2 m/s 755 mmHg 79%
    22:00 -3°C° 0 mm 2 m/s 755 mmHg 79%
    23:00 -3°C° 0 mm 2 m/s 755 mmHg 78%
    Arată mai mult